Back to catalog

STARLINK-4366

AliveCommunicationsSSO
NORAD 53227·PAYLOAD·🇺🇸 United States

Launched Jul 22, 2022 from Vandenberg Space Force Base

Loading…

Next Passes (next 24 hours)

TLE

FreshSource: CelesTrak SupGP

Epoch: Sep 14, 2026, 13:41 UTC

1 53227C 22084AQ  26257.57062500  .00075322  00000+0  23379-2 0  2573
2 53227  97.2841 313.3042 0001551  97.4746 216.5552 15.33404954    12

Track STARLINK-4366 in real time with AllMySat

Download on the App Store